Wind_Speed
4 3 2 1 1 1 0 0 1 1 2 2 2 3 2 2 3 3 3 4 4 4 5 5 5 5 6 6 6 5 6 6 6 6 6 6 7 7 7 7 7 7 8
3 2 1 1 0 0 0 1 2 2 2 3 3 3 3 4 4 4 5 5 5 5 5 6 6 6 7 7 7 7 7 7 7 7 7 7 7 7 7 7 8 8 8
2 1 1 0 0 0 1 2 2 3 4 4 4 4 4 5 5 6 6 5 5 6 6 6 7 7 7 7 8 8 8 8 8 8 8 8 8 8 8 8 8 9 9
2 1 1 0 1 1 2 2 3 3 4 4 4 5 5 6 6 6 6 6 6 6 7 7 7 8 8 8 8 9 9 9 9 9 9 9 9 9 9 9 9 10 10
2 1 0 1 1 2 3 4 4 4 4 5 5 5 5 5 5 5 6 6 6 7 7 8 8 8 8 8 9 9 10 10 10 10 10 10 10 10 10 10 10 10 11
1 0 1 2 2 3 4 5 5 5 5 5 5 5 5 5 5 5 5 6 7 7 7 8 8 8 8 8 8 9 10 10 10 11 11 11 11 11 11 11 11 11 11
1 1 2 2 3 4 4 5 4 4 5 5 5 6 6 6 5 5 6 6 6 7 7 8 8 8 8 8 9 9 9 10 11 10 10 11 12 12 12 12 12 12 12
2 2 3 3 4 5 5 6 6 6 5 6 6 6 6 7 6 6 6 7 7 8 8 8 8 8 8 9 9 10 10 11 11 11 11 11 11 11 12 12 12 12 12
3 3 4 5 6 6 6 6 7 7 6 6 7 7 7 7 7 7 8 8 8 9 9 9 9 9 10 10 10 11 11 12 12 11 12 11 12 12 12 13 13 13 13
5 5 6 7 7 7 7 7 8 8 8 8 9 9 9 9 8 9 9 9 9 9 10 10 11 12 12 11 12 12 12 12 13 13 13 13 13 13 13 13 13 13 13
6 7 7 8 8 8 8 8 9 9 10 10 11 11 10 10 10 10 10 10 10 11 11 11 11 12 13 13 14 14 14 14 13 14 14 15 15 14 15 15 15 14 14
8 8 9 9 9 10 10 10 10 11 11 11 11 11 12 12 11 11 11 11 12 12 12 13 13 13 14 15 15 16 16 16 16 16 16 15 16 16 16 16 16 16 16
10 10 10 11 11 11 11 11 12 12 11 12 13 13 13 13 13 14 13 13 13 13 14 14 14 15 15 15 16 17 17 17 17 17 17 16 16 16 17 17 17 17 17
12 12 12 12 12 12 13 13 13 13 13 13 13 14 15 15 15 16 15 15 15 15 15 15 15 16 16 16 17 17 17 17 18 18 18 18 18 18 18 18 18 19 19
14 14 14 14 15 15 15 15 15 14 15 15 15 16 17 17 17 18 17 17 17 17 16 16 16 17 17 17 18 18 18 19 19 19 19 20 20 20 20 20 19 20 20
17 17 17 17 17 17 17 17 16 16 17 17 18 18 18 18 18 19 19 19 19 19 18 18 19 19 19 19 20 20 21 21 21 21 21 22 22 22 22 22 22 22 22
19 20 20 20 20 19 19 19 19 18 18 18 18 18 18 19 19 19 20 21 21 21 21 20 20 20 20 21 21 22 23 23 23 22 23 23 23 23 23 23 24 24 24
21 22 22 22 22 22 22 21 21 20 20 20 20 20 20 20 21 21 20 20 20 21 21 21 21 22 22 23 23 24 25 25 24 24 24 24 24 24 24 25 25 25 25
23 23 23 24 24 24 24 23 23 23 22 22 22 22 22 22 22 21 21 21 21 21 21 22 22 22 23 24 25 25 26 26 26 26 26 26 26 26 26 26 27 27 27
25 25 25 25 25 25 25 26 25 25 24 24 24 24 24 24 24 23 24 24 24 24 24 24 23 24 25 25 26 26 27 27 27 28 28 28 28 27 27 27 27 27 28
27 26 26 26 27 27 27 27 27 27 26 25 25 25 25 25 25 25 26 26 27 27 26 26 26 26 27 27 28 28 27 27 28 28 29 28 28 28 28 28 29 29 29
29 29 28 28 28 28 27 27 27 28 28 27 27 26 26 26 27 27 27 28 28 28 28 29 29 28 28 28 29 29 29 29 29 30 30 30 30 30 30 31 31 31 31
32 31 31 31 30 29 29 29 29 29 29 29 29 28 27 28 28 28 29 30 30 30 30 30 30 30 30 30 30 30 31 30 30 30 31 31 31 31 32 32 32 32 32
34 33 32 32 31 31 31 31 31 31 31 30 30 30 30 30 30 31 31 31 32 32 31 31 31 32 32 32 32 33 32 32 32 32 32 32 33 33 32 33 32 33 33
34 34 33 32 32 32 33 33 33 33 32 31 32 32 32 32 32 33 33 32 32 33 33 32 32 32 33 34 34 34 34 33 33 33 34 34 33 33 33 33 33 33 33
34 34 33 32 32 33 34 35 35 35 35 35 35 35 35 34 34 34 34 34 34 34 33 34 34 34 34 35 35 35 34 34 34 34 34 34 34 34 34 34 34 33 34
Wind_Direction
131 120 121 124 111 98 119 37 360 310 304 308 301 302 299 290 303 300 289 285 285 283 276 278 283 288 297 297 296 299 302 296 291 291 292 293 297 302 300 294 299 298 297
126 106 114 131 87 53 253 301 309 309 301 301 295 295 297 294 300 298 290 284 282 284 284 282 283 287 293 294 297 296 298 296 294 290 295 297 301 304 303 297 294 296 295
132 108 95 180 280 357 333 324 314 319 310 305 299 296 299 298 293 294 287 279 283 287 288 286 282 284 289 292 295 296 300 297 294 293 293 295 298 297 296 295 292 291 294
134 111 75 353 313 318 329 334 330 326 316 309 312 307 303 299 301 296 285 278 283 289 289 286 283 282 284 287 291 294 294 298 296 293 292 294 297 295 296 295 294 292 292
141 122 79 303 293 300 309 314 312 321 316 313 316 320 314 308 297 298 294 283 281 288 293 289 283 285 287 291 293 295 296 297 296 294 290 289 294 297 296 296 296 296 293
155 161 349 340 319 312 311 314 311 312 310 308 311 321 324 317 307 299 299 292 285 288 294 294 292 290 288 291 296 297 299 301 299 297 295 292 293 297 298 298 296 296 295
188 262 308 313 311 312 316 316 315 308 306 305 305 310 319 319 310 298 295 294 292 293 294 298 300 296 292 297 302 302 300 302 304 300 298 297 294 295 299 300 296 294 292
229 265 295 306 311 311 308 305 307 303 300 299 300 303 305 307 302 294 292 292 291 292 296 298 299 298 297 299 300 302 306 307 307 303 300 297 295 294 296 299 298 297 296
252 277 287 295 301 303 302 302 297 297 297 296 294 293 294 296 295 295 293 290 290 291 292 291 290 291 294 296 298 300 303 304 305 303 300 297 295 294 294 297 299 299 299
264 279 288 291 292 296 298 299 293 291 288 288 290 291 292 293 293 292 291 291 289 288 289 288 290 291 292 292 294 296 300 300 301 300 300 298 297 294 292 294 297 297 297
267 276 286 289 291 295 296 292 288 287 285 285 287 288 289 290 289 289 290 289 289 289 290 287 289 289 288 287 291 292 296 297 298 299 299 296 294 292 291 290 291 293 294
270 274 281 285 288 291 294 289 286 287 286 284 285 287 288 288 286 287 287 287 287 287 286 286 287 288 287 287 290 292 293 296 295 295 296 295 293 291 291 291 289 289 291
270 274 277 282 286 288 290 291 289 288 286 283 282 285 287 287 286 284 284 285 285 285 285 286 287 287 285 286 289 291 292 293 293 293 294 294 293 292 292 292 289 288 290
270 276 279 281 284 287 289 291 291 290 288 285 283 284 284 282 283 285 281 280 283 284 285 285 286 286 285 286 288 290 294 291 291 291 291 292 292 291 290 290 287 288 289
271 276 279 279 282 284 285 287 289 288 287 289 286 285 283 281 280 280 280 279 279 280 282 284 284 285 286 287 288 289 291 292 289 289 289 290 290 289 288 288 285 287 287
270 273 275 276 278 279 282 284 285 287 288 288 288 288 288 287 286 283 280 278 277 279 281 282 282 284 286 287 287 287 289 291 291 288 287 288 290 289 287 286 285 286 285
269 270 272 273 274 275 278 281 282 284 286 287 286 287 287 287 288 287 283 281 281 281 281 282 281 281 284 286 286 286 288 289 290 290 289 288 290 288 285 285 284 283 283
271 269 270 272 273 275 276 277 279 280 282 284 286 287 288 288 288 288 286 286 285 285 283 281 278 279 282 285 287 290 289 287 288 288 287 288 290 288 286 284 284 284 284
273 271 270 272 272 274 276 276 277 278 280 282 283 285 287 287 288 285 284 286 287 287 285 283 280 281 283 284 287 289 290 288 288 288 287 288 289 288 287 285 284 283 283
274 272 272 274 274 274 274 274 275 276 277 279 281 283 285 285 285 283 284 284 284 284 284 284 284 283 285 286 286 286 287 287 288 288 288 287 288 288 286 285 285 284 283
275 274 274 274 274 274 274 274 274 274 275 276 279 281 284 284 282 281 282 283 282 283 283 284 283 283 284 285 285 285 286 286 287 288 288 287 287 287 286 285 284 284 284
277 276 274 273 273 273 273 275 276 275 275 274 276 279 282 283 280 280 282 282 282 282 282 283 283 282 283 284 285 285 285 284 286 286 286 285 286 286 286 285 284 283 284
278 277 274 272 271 271 272 273 274 275 275 274 275 278 281 283 282 280 281 281 281 282 281 283 283 282 282 283 284 285 285 283 283 283 284 285 286 286 286 285 283 282 283
277 275 274 270 269 270 271 271 272 272 273 274 276 277 279 280 282 282 282 281 280 281 281 283 283 283 283 283 284 284 284 283 282 283 285 285 286 286 287 286 285 283 282
276 273 271 268 268 269 271 271 271 271 271 272 275 276 277 278 280 282 283 282 281 281 282 284 285 284 283 283 284 285 285 285 284 284 284 284 285 285 286 286 286 285 284
274 271 269 267 269 270 271 271 271 270 271 272 274 275 275 277 279 280 282 282 282 282 282 283 283 283 283 284 285 285 285 285 285 284 284 284 284 285 285 285 286 285 284
Height
5905 5905 5906 5906 5906 5906 5907 5907 5907 5907 5907 5907 5907 5907 5907 5907 5907 5907 5907 5908 5908 5908 5908 5908 5907 5907 5907 5906 5906 5906 5905 5905 5904 5904 5904 5903 5903 5902 5902 5901 5901 5900 5900
5905 5906 5906 5906 5906 5907 5907 5907 5907 5907 5907 5907 5907 5907 5906 5906 5906 5906 5906 5906 5907 5907 5907 5906 5906 5906 5906 5905 5905 5904 5904 5903 5903 5903 5902 5902 5901 5901 5900 5900 5899 5899 5898
5905 5906 5906 5907 5907 5907 5907 5907 5907 5907 5907 5906 5906 5906 5906 5906 5906 5905 5905 5905 5906 5906 5906 5905 5905 5905 5905 5904 5904 5903 5902 5902 5902 5901 5901 5900 5900 5899 5899 5898 5898 5897 5896
5905 5906 5906 5907 5907 5907 5907 5907 5907 5906 5906 5906 5905 5905 5905 5905 5904 5904 5904 5904 5904 5904 5904 5904 5904 5903 5903 5903 5902 5901 5901 5900 5900 5899 5899 5899 5898 5898 5897 5896 5896 5895 5894
5906 5906 5907 5907 5907 5907 5907 5906 5906 5906 5905 5905 5904 5904 5904 5903 5903 5903 5903 5903 5903 5903 5903 5902 5902 5902 5901 5901 5900 5900 5899 5898 5898 5897 5897 5896 5896 5895 5895 5894 5893 5892 5892
5906 5906 5907 5907 5907 5906 5906 5906 5905 5905 5904 5904 5904 5903 5903 5902 5902 5902 5902 5902 5902 5902 5901 5901 5901 5900 5900 5899 5899 5898 5897 5897 5896 5895 5894 5894 5893 5893 5892 5892 5891 5890 5889
5906 5906 5907 5906 5906 5906 5905 5905 5904 5904 5904 5903 5903 5903 5902 5902 5901 5901 5901 5901 5901 5900 5900 5899 5899 5898 5898 5897 5897 5897 5896 5895 5894 5893 5892 5892 5891 5891 5890 5889 5888 5887 5887
5906 5906 5906 5906 5906 5905 5904 5904 5903 5903 5903 5902 5902 5902 5901 5901 5900 5900 5900 5899 5899 5899 5898 5898 5897 5897 5896 5896 5896 5895 5894 5893 5892 5891 5890 5889 5889 5888 5887 5887 5886 5885 5884
5905 5905 5905 5905 5904 5904 5903 5902 5902 5902 5901 5901 5901 5901 5900 5900 5899 5899 5898 5897 5897 5897 5896 5896 5895 5895 5894 5894 5894 5893 5892 5891 5890 5889 5888 5887 5886 5885 5885 5884 5883 5882 5881
5904 5904 5904 5903 5903 5902 5901 5901 5900 5899 5899 5899 5899 5898 5898 5898 5897 5897 5896 5895 5895 5894 5894 5893 5893 5892 5892 5891 5891 5890 5889 5888 5887 5886 5885 5884 5883 5882 5882 5881 5880 5879 5878
5902 5902 5902 5902 5901 5900 5899 5899 5898 5897 5897 5897 5896 5896 5896 5895 5894 5894 5894 5893 5892 5892 5891 5891 5890 5889 5889 5888 5888 5887 5886 5885 5884 5883 5882 5881 5880 5879 5878 5877 5876 5876 5875
5901 5901 5900 5900 5899 5898 5897 5897 5896 5895 5894 5894 5893 5893 5893 5892 5892 5891 5890 5890 5889 5889 5888 5887 5887 5886 5885 5885 5884 5883 5882 5881 5881 5880 5879 5878 5877 5876 5875 5874 5873 5872 5871
5898 5898 5898 5898 5897 5896 5895 5894 5893 5892 5891 5891 5890 5890 5889 5889 5888 5888 5887 5886 5886 5885 5884 5884 5883 5882 5882 5881 5880 5879 5878 5877 5877 5876 5875 5874 5873 5872 5871 5870 5869 5868 5867
5895 5895 5895 5895 5894 5894 5893 5891 5890 5889 5888 5887 5887 5886 5886 5885 5884 5884 5883 5883 5882 5882 5881 5880 5879 5878 5877 5877 5876 5875 5874 5873 5872 5872 5871 5870 5869 5868 5867 5866 5865 5863 5862
5892 5892 5891 5891 5891 5890 5889 5888 5887 5886 5885 5884 5883 5883 5882 5881 5880 5879 5879 5878 5878 5877 5877 5876 5875 5874 5873 5872 5871 5871 5870 5869 5868 5867 5866 5865 5864 5863 5862 5861 5860 5859 5858
5888 5888 5887 5887 5886 5886 5885 5884 5883 5882 5882 5880 5879 5878 5877 5876 5876 5875 5874 5874 5873 5873 5872 5872 5870 5869 5868 5868 5867 5866 5865 5864 5863 5862 5861 5860 5859 5858 5857 5856 5855 5853 5852
5883 5883 5883 5882 5881 5881 5880 5880 5879 5878 5877 5876 5874 5874 5873 5872 5871 5870 5869 5869 5868 5868 5867 5867 5865 5864 5863 5863 5862 5861 5860 5859 5857 5856 5855 5854 5853 5852 5851 5850 5849 5847 5846
5877 5877 5877 5876 5876 5875 5874 5874 5873 5873 5872 5871 5870 5869 5868 5867 5866 5865 5864 5863 5863 5862 5862 5861 5860 5859 5858 5857 5856 5855 5853 5852 5851 5850 5849 5848 5847 5845 5844 5843 5842 5840 5839
5871 5871 5870 5870 5869 5869 5868 5867 5867 5867 5866 5865 5865 5864 5863 5862 5861 5859 5859 5858 5857 5856 5855 5855 5854 5853 5852 5851 5850 5849 5847 5846 5844 5843 5842 5841 5840 5838 5837 5835 5834 5833 5832
5864 5864 5864 5863 5862 5862 5861 5861 5860 5860 5859 5859 5858 5858 5857 5856 5855 5854 5853 5852 5851 5850 5849 5848 5847 5846 5845 5844 5842 5841 5840 5839 5838 5836 5835 5833 5832 5831 5829 5828 5826 5825 5824
5857 5857 5857 5856 5855 5855 5854 5854 5854 5853 5853 5852 5852 5851 5850 5849 5848 5847 5846 5845 5844 5843 5842 5841 5840 5839 5838 5836 5835 5834 5832 5831 5830 5828 5827 5826 5824 5823 5821 5820 5818 5817 5816
5849 5849 5849 5848 5848 5847 5847 5846 5846 5846 5845 5845 5844 5843 5843 5842 5840 5840 5839 5838 5837 5836 5835 5834 5832 5831 5829 5828 5827 5825 5824 5823 5822 5821 5819 5818 5816 5815 5813 5811 5810 5808 5807
5841 5840 5840 5840 5840 5839 5839 5839 5838 5838 5837 5837 5836 5836 5835 5834 5833 5832 5831 5830 5828 5827 5827 5826 5824 5823 5821 5820 5818 5817 5815 5814 5813 5812 5810 5809 5807 5806 5804 5802 5800 5799 5797
5831 5831 5831 5831 5831 5831 5831 5830 5830 5830 5829 5828 5828 5828 5827 5826 5825 5824 5823 5821 5820 5819 5818 5817 5815 5814 5812 5811 5809 5808 5806 5805 5804 5802 5801 5800 5798 5796 5794 5792 5790 5789 5787
5820 5820 5821 5821 5822 5822 5822 5822 5821 5821 5821 5820 5820 5819 5818 5817 5816 5815 5814 5812 5811 5810 5808 5807 5806 5804 5803 5801 5800 5798 5797 5796 5794 5793 5791 5790 5788 5787 5785 5783 5781 5779 5777
5811 5811 5811 5812 5812 5813 5813 5812 5812 5812 5811 5811 5810 5809 5809 5808 5807 5806 5805 5803 5802 5800 5798 5797 5796 5794 5793 5791 5789 5788 5787 5785 5784 5783 5781 5780 5778 5776 5775 5774 5771 5769 5767